| time (UTC) | temp F | wind direction | speed MPH | gust MPH | rain 1hr in | rain 24hr in | rain mn in | humidity % | barometer mb |
| 20260905184159 | 80 | 353 | 0.0 | 1.0 | 0.00 | 0.26 | 0.26 | 84 | 1008.5 |
| 20260905183654 | 78 | 344 | 0.0 | 0.0 | 0.00 | 0.26 | 0.26 | 86 | 1008.6 |
| 20260905183149 | 78 | 25 | 0.0 | 1.0 | 0.00 | 0.26 | 0.26 | 85 | 1008.6 |
| 20260905182648 | 77 | 18 | 0.0 | 0.0 | 0.00 | 0.26 | 0.26 | 92 | 1008.6 |
| 20260905182143 | 78 | 12 | 0.0 | 0.0 | 0.00 | 0.26 | 0.26 | 89 | 1008.7 |
| 20260905181638 | 78 | 25 | 1.0 | 1.0 | 0.00 | 0.26 | 0.26 | 86 | 1008.9 |
| 20260905181137 | 76 | 344 | 0.0 | 0.0 | 0.00 | 0.26 | 0.26 | 93 | 1008.9 |
| 20260905180632 | 78 | 345 | 1.0 | 1.0 | 0.00 | 0.26 | 0.26 | 92 | 1009.1 |
| 20260905180127 | 78 | 15 | 0.0 | 0.0 | 0.00 | 0.26 | 0.26 | 94 | 1009.0 |
| 20260905175626 | 76 | 5 | 0.0 | 0.0 | 0.00 | 0.26 | 0.26 | 93 | 1008.9 |
| 20260905175122 | 76 | 309 | 1.0 | 1.0 | 0.00 | 0.26 | 0.26 | 96 | 1009.1 |
| 20260905174617 | 76 | 351 | 0.0 | 0.0 | 0.00 | 0.26 | 0.26 | 94 | 1009.2 |
| 20260905174112 | 75 | 331 | 0.0 | 0.0 | 0.00 | 0.26 | 0.26 | 96 | 1008.9 |
| 20260905173608 | 75 | 313 | 1.0 | 1.0 | 0.00 | 0.26 | 0.26 | 97 | 1009.1 |
| 20260905173104 | 74 | 341 | 0.0 | 1.0 | 0.00 | 0.26 | 0.26 | 98 | 1009.0 |
| 20260905172603 | 73 | 339 | 0.0 | 1.0 | 0.00 | 0.26 | 0.26 | 98 | 1009.2 |
| 20260905172057 | 72 | 192 | 2.0 | 2.0 | 0.00 | 0.26 | 0.26 | 99 | 1009.2 |
| 20260905171554 | 72 | 334 | 0.0 | 0.0 | 0.07 | 0.26 | 0.26 | 99 | 1009.0 |
| 20260905171050 | 71 | 12 | 0.0 | 0.0 | 0.19 | 0.26 | 0.26 | 99 | 1009.4 |
| 20260905170546 | 71 | 8 | 0.0 | 1.0 | 0.12 | 0.25 | 0.25 | 99 | 1009.3 |
| 20260905170041 | 71 | 11 | 0.0 | 0.0 | 0.00 | 0.23 | 0.23 | 99 | 1009.6 |
| 20260905165536 | 71 | 11 | 0.0 | 0.0 | 0.00 | 0.23 | 0.23 | 99 | 1009.6 |
| 20260905165032 | 70 | 10 | 0.0 | 0.0 | 1.09 | 0.23 | 0.23 | 99 | 1009.6 |
| 20260905164526 | 70 | 337 | 0.0 | 1.0 | 1.25 | 0.23 | 0.23 | 99 | 1009.8 |
| 20260905164020 | 71 | 354 | 0.0 | 0.0 | 0.31 | 0.07 | 0.07 | 99 | 1009.8 |
| 20260905163511 | 71 | 330 | 2.0 | 3.0 | 0.00 | 0.02 | 0.02 | 99 | 1009.7 |
| 20260905163007 | 72 | 351 | 0.0 | 1.0 | 0.00 | 0.02 | 0.02 | 99 | 1010.1 |
| 20260905162502 | 72 | 355 | 0.0 | 1.0 | 0.00 | 0.02 | 0.02 | 99 | 1010.0 |
| 20260905161956 | 73 | 355 | 0.0 | 0.0 | 0.00 | 0.02 | 0.02 | 99 | 1009.7 |
| 20260905161455 | 73 | 349 | 0.0 | 0.0 | 0.07 | 0.02 | 0.02 | 99 | 1009.9 |
| 20260905160954 | 73 | 351 | 0.0 | 0.0 | 0.12 | 0.02 | 0.02 | 99 | 1009.8 |
| 20260905160448 | 74 | 351 | 0.0 | 0.0 | 0.05 | 0.01 | 0.01 | 98 | 1009.8 |
| 20260905155947 | 74 | 349 | 0.0 | 0.0 | 0.00 | 0.00 | 0.00 | 97 | 1009.7 |
| 20260905155442 | 74 | 347 | 0.0 | 0.0 | 0.00 | 0.00 | 0.00 | 94 | 1009.6 |
| 20260905154941 | 74 | 13 | 0.0 | 0.0 | 0.00 | 0.00 | 0.00 | 93 | 1009.7 |
| 20260905154436 | 74 | 13 | 0.0 | 0.0 | 0.00 | 0.00 | 0.00 | 93 | 1009.8 |
| 20260905153932 | 75 | 13 | 0.0 | 0.0 | 0.00 | 0.00 | 0.00 | 93 | 1009.9 |
| 20260905153428 | 74 | 13 | 0.0 | 0.0 | 0.00 | 0.00 | 0.00 | 95 | 1009.7 |
| 20260905152927 | 73 | 13 | 0.0 | 0.0 | 0.00 | 0.00 | 0.00 | 96 | 1010.0 |
| 20260905152427 | 73 | 13 | 0.0 | 0.0 | 0.00 | 0.00 | 0.00 | 99 | 1009.9 |
| 20260905151922 | 73 | 13 | 0.0 | 0.0 | 0.00 | 0.00 | 0.00 | 99 | 1010.0 |
| 20260905151418 | 72 | 12 | 0.0 | 0.0 | 0.00 | 0.00 | 0.00 | 99 | 1010.3 |
| 20260905150919 | 72 | 13 | 0.0 | 1.0 | 0.00 | 0.00 | 0.00 | 99 | 1010.0 |
| 20260905150419 | 72 | 13 | 0.0 | 0.0 | 0.00 | 0.00 | 0.00 | 99 | 1010.0 |
| 20260905145915 | 72 | 13 | 0.0 | 0.0 | 0.00 | 0.00 | 0.00 | 99 | 1010.2 |
| 20260905145410 | 72 | 12 | 0.0 | 0.0 | 0.00 | 0.00 | 0.00 | 99 | 1010.3 |
| 20260905144909 | 71 | 12 | 0.0 | 0.0 | 0.00 | 0.00 | 0.00 | 99 | 1010.3 |
| 20260905144405 | 71 | 13 | 0.0 | 0.0 | 0.00 | 0.00 | 0.00 | 99 | 1010.4 |
| 20260905143903 | 71 | 13 | 0.0 | 0.0 | 0.00 | 0.00 | 0.00 | 99 | 1010.3 |
| 20260905143358 | 71 | 13 | 0.0 | 0.0 | 0.00 | 0.00 | 0.00 | 99 | 1010.4 |
| 20260905142857 | 71 | 13 | 0.0 | 0.0 | 0.00 | 0.00 | 0.00 | 99 | 1010.0 |
| 20260905142355 | 71 | 13 | 0.0 | 0.0 | 0.00 | 0.00 | 0.00 | 99 | 1010.0 |
| 20260905141852 | 71 | 13 | 0.0 | 0.0 | 0.00 | 0.00 | 0.00 | 99 | 1010.0 |
| 20260905141341 | 71 | 13 | 0.0 | 0.0 | 0.00 | 0.00 | 0.00 | 99 | 1009.9 |
| 20260905140837 | 71 | 13 | 0.0 | 0.0 | 0.00 | 0.00 | 0.00 | 99 | 1010.1 |
| 20260905140331 | 71 | 13 | 0.0 | 0.0 | 0.00 | 0.00 | 0.00 | 99 | 1010.3 |
| 20260905135830 | 71 | 13 | 0.0 | 0.0 | 0.00 | 0.00 | 0.00 | 99 | 1010.3 |
| 20260905135326 | 71 | 13 | 0.0 | 0.0 | 0.00 | 0.00 | 0.00 | 99 | 1010.1 |
| 20260905134821 | 71 | 13 | 0.0 | 0.0 | 0.00 | 0.00 | 0.00 | 99 | 1010.0 |
| 20260905134314 | 71 | 14 | 0.0 | 0.0 | 0.00 | 0.00 | 0.00 | 99 | 1010.1 |
| 20260905133809 | 71 | 12 | 0.0 | 1.0 | 0.00 | 0.00 | 0.00 | 99 | 1009.9 |
| 20260905133305 | 70 | 10 | 0.0 | 0.0 | 0.00 | 0.00 | 0.00 | 99 | 1009.8 |
| 20260905132803 | 71 | 10 | 0.0 | 0.0 | 0.00 | 0.00 | 0.00 | 99 | 1009.8 |
| 20260905132259 | 71 | 10 | 0.0 | 0.0 | 0.00 | 0.00 | 0.00 | 99 | 1009.8 |
| 20260905131754 | 70 | 10 | 0.0 | 0.0 | 0.00 | 0.00 | 0.00 | 99 | 1009.4 |
| 20260905131249 | 70 | 10 | 0.0 | 0.0 | 0.00 | 0.00 | 0.00 | 99 | 1009.2 |
| 20260905130744 | 70 | 10 | 0.0 | 0.0 | 0.00 | 0.00 | 0.00 | 99 | 1009.4 |
| 20260905130243 | 69 | 10 | 0.0 | 0.0 | 0.00 | 0.00 | 0.00 | 99 | 1009.4 |
| 20260905125738 | 69 | 10 | 0.0 | 0.0 | 0.00 | 0.00 | 0.00 | 99 | 1009.5 |
| 20260905125233 | 69 | 10 | 0.0 | 0.0 | 0.00 | 0.00 | 0.00 | 99 | 1009.5 |
| 20260905124730 | 69 | 10 | 0.0 | 0.0 | 0.00 | 0.00 | 0.00 | 99 | 1009.8 |
| 20260905124225 | 69 | 10 | 0.0 | 0.0 | 0.00 | 0.00 | 0.00 | 99 | 1009.8 |
| 20260905123720 | 68 | 10 | 0.0 | 0.0 | 0.00 | 0.00 | 0.00 | 99 | 1009.8 |
| 20260905123218 | 68 | 10 | 0.0 | 0.0 | 0.00 | 0.00 | 0.00 | 99 | 1009.6 |
| 20260905122716 | 68 | 10 | 0.0 | 0.0 | 0.00 | 0.00 | 0.00 | 99 | 1009.6 |
| 20260905122211 | 68 | 10 | 1.0 | 1.0 | 0.00 | 0.00 | 0.00 | 99 | 1009.7 |
| 20260905121706 | 68 | 12 | 0.0 | 1.0 | 0.00 | 0.00 | 0.00 | 99 | 1009.5 |
| 20260905121203 | 67 | 341 | 0.0 | 0.0 | 0.00 | 0.00 | 0.00 | 99 | 1009.5 |
| 20260905120701 | 67 | 3 | 0.0 | 0.0 | 0.00 | 0.00 | 0.00 | 99 | 1009.3 |
| 20260905120155 | 67 | 3 | 0.0 | 0.0 | 0.00 | 0.00 | 0.00 | 99 | 1009.2 |
| 20260905115650 | 66 | 3 | 0.0 | 0.0 | 0.00 | 0.00 | 0.00 | 99 | 1009.2 |
| 20260905115145 | 66 | 2 | 0.0 | 0.0 | 0.00 | 0.00 | 0.00 | 99 | 1009.0 |
| 20260905114645 | 66 | 344 | 0.0 | 0.0 | 0.00 | 0.00 | 0.00 | 99 | 1009.2 |
| 20260905114143 | 66 | 344 | 0.0 | 0.0 | 0.00 | 0.00 | 0.00 | 99 | 1009.2 |
| 20260905113643 | 66 | 328 | 1.0 | 1.0 | 0.00 | 0.00 | 0.00 | 99 | 1009.1 |
| 20260905113139 | 65 | 339 | 0.0 | 0.0 | 0.00 | 0.00 | 0.00 | 99 | 1009.0 |
| 20260905112633 | 65 | 339 | 0.0 | 0.0 | 0.00 | 0.00 | 0.00 | 99 | 1009.0 |
| 20260905112130 | 65 | 339 | 0.0 | 0.0 | 0.00 | 0.00 | 0.00 | 99 | 1008.8 |
| 20260905111629 | 65 | 339 | 0.0 | 0.0 | 0.00 | 0.00 | 0.00 | 99 | 1009.0 |
| 20260905111128 | 65 | 339 | 0.0 | 1.0 | 0.00 | 0.00 | 0.00 | 99 | 1009.0 |
| 20260905110628 | 65 | 339 | 0.0 | 0.0 | 0.00 | 0.00 | 0.00 | 99 | 1008.8 |
| 20260905110123 | 65 | 339 | 0.0 | 0.0 | 0.00 | 0.00 | 0.00 | 99 | 1008.8 |
| 20260905105618 | 65 | 339 | 0.0 | 0.0 | 0.00 | 0.00 | 0.00 | 99 | 1008.8 |
| 20260905105117 | 65 | 339 | 0.0 | 0.0 | 0.00 | 0.00 | 0.00 | 99 | 1008.8 |
| 20260905104612 | 65 | 339 | 0.0 | 0.0 | 0.00 | 0.00 | 0.00 | 99 | 1008.8 |
| 20260905104107 | 65 | 321 | 0.0 | 0.0 | 0.00 | 0.00 | 0.00 | 99 | 1008.8 |
| 20260905103603 | 65 | 345 | 0.0 | 0.0 | 0.00 | 0.00 | 0.00 | 99 | 1008.7 |
| 20260905103059 | 65 | 12 | 0.0 | 0.0 | 0.00 | 0.00 | 0.00 | 99 | 1008.9 |
| 20260905102554 | 65 | 338 | 0.0 | 0.0 | 0.00 | 0.00 | 0.00 | 99 | 1008.8 |
| 20260905102051 | 66 | 1 | 0.0 | 0.0 | 0.00 | 0.00 | 0.00 | 99 | 1008.7 |
| 20260905101548 | 66 | 5 | 0.0 | 1.0 | 0.00 | 0.00 | 0.00 | 99 | 1008.6 |
| 20260905101046 | 66 | 351 | 0.0 | 0.0 | 0.00 | 0.00 | 0.00 | 99 | 1008.4 |
| 20260905100538 | 66 | 358 | 0.0 | 1.0 | 0.00 | 0.00 | 0.00 | 99 | 1008.3 |
| 20260905100037 | 66 | 0 | 0.0 | 0.0 | 0.00 | 0.00 | 0.00 | 99 | 1008.1 |
| 20260905095532 | 66 | 12 | 1.0 | 1.0 | 0.00 | 0.00 | 0.00 | 99 | 1008.2 |
| 20260905095027 | 66 | 349 | 0.0 | 0.0 | 0.00 | 0.00 | 0.00 | 99 | 1008.2 |
| 20260905094522 | 66 | 350 | 0.0 | 0.0 | 0.00 | 0.00 | 0.00 | 99 | 1008.3 |
| 20260905094021 | 66 | 344 | 0.0 | 0.0 | 0.00 | 0.00 | 0.00 | 99 | 1008.3 |
| 20260905093516 | 66 | 344 | 0.0 | 0.0 | 0.00 | 0.00 | 0.00 | 99 | 1008.2 |
| 20260905093012 | 65 | 356 | 0.0 | 0.0 | 0.00 | 0.00 | 0.00 | 99 | 1008.4 |
| 20260905092512 | 65 | 359 | 0.0 | 0.0 | 0.00 | 0.00 | 0.00 | 99 | 1008.5 |
| 20260905092008 | 65 | 359 | 0.0 | 0.0 | 0.00 | 0.00 | 0.00 | 99 | 1008.4 |
| 20260905091502 | 65 | 4 | 0.0 | 0.0 | 0.00 | 0.00 | 0.00 | 99 | 1008.2 |
| 20260905091001 | 65 | 345 | 0.0 | 0.0 | 0.00 | 0.00 | 0.00 | 99 | 1008.4 |
| 20260905090456 | 64 | 346 | 0.0 | 0.0 | 0.00 | 0.00 | 0.00 | 99 | 1008.2 |
| 20260905085955 | 64 | 346 | 0.0 | 0.0 | 0.00 | 0.00 | 0.00 | 99 | 1008.1 |
| 20260905085455 | 64 | 345 | 0.0 | 0.0 | 0.00 | 0.00 | 0.00 | 99 | 1008.2 |
| 20260905084951 | 64 | 344 | 0.0 | 0.0 | 0.00 | 0.00 | 0.00 | 99 | 1008.1 |
| 20260905084450 | 64 | 343 | 0.0 | 0.0 | 0.00 | 0.00 | 0.00 | 99 | 1008.3 |
| 20260905083946 | 64 | 339 | 0.0 | 0.0 | 0.00 | 0.00 | 0.00 | 99 | 1008.3 |
| 20260905083441 | 64 | 339 | 0.0 | 0.0 | 0.00 | 0.00 | 0.00 | 99 | 1008.4 |
| 20260905082937 | 63 | 339 | 0.0 | 0.0 | 0.00 | 0.00 | 0.00 | 99 | 1008.4 |
| 20260905082433 | 64 | 339 | 0.0 | 0.0 | 0.00 | 0.00 | 0.00 | 99 | 1008.3 |
| 20260905081927 | 64 | 339 | 0.0 | 0.0 | 0.00 | 0.00 | 0.00 | 99 | 1008.4 |
| 20260905081422 | 64 | 339 | 0.0 | 0.0 | 0.00 | 0.00 | 0.00 | 99 | 1008.6 |
| 20260905080921 | 64 | 339 | 0.0 | 0.0 | 0.00 | 0.00 | 0.00 | 99 | 1008.6 |
| 20260905080416 | 64 | 339 | 0.0 | 0.0 | 0.00 | 0.00 | 0.00 | 99 | 1008.5 |
| 20260905075915 | 64 | 339 | 0.0 | 0.0 | 0.00 | 0.00 | 0.00 | 99 | 1008.7 |
| 20260905075409 | 64 | 339 | 0.0 | 0.0 | 0.00 | 0.00 | 0.00 | 99 | 1008.8 |
| 20260905074908 | 64 | 339 | 0.0 | 0.0 | 0.00 | 0.00 | 0.00 | 99 | 1008.5 |
| 20260905074404 | 64 | 339 | 0.0 | 0.0 | 0.00 | 0.00 | 0.00 | 99 | 1008.7 |
| 20260905073900 | 64 | 339 | 0.0 | 0.0 | 0.00 | 0.00 | 0.00 | 99 | 1008.5 |
| 20260905073355 | 64 | 339 | 0.0 | 0.0 | 0.00 | 0.00 | 0.00 | 99 | 1008.7 |
| 20260905072850 | 64 | 339 | 0.0 | 0.0 | 0.00 | 0.00 | 0.00 | 99 | 1008.6 |
| 20260905072345 | 64 | 339 | 0.0 | 0.0 | 0.00 | 0.00 | 0.00 | 99 | 1008.7 |
| 20260905071841 | 64 | 339 | 0.0 | 0.0 | 0.00 | 0.00 | 0.00 | 99 | 1008.8 |
| 20260905071337 | 64 | 339 | 0.0 | 0.0 | 0.00 | 0.00 | 0.00 | 99 | 1009.0 |
| 20260905070831 | 64 | 339 | 0.0 | 0.0 | 0.00 | 0.00 | 0.00 | 99 | 1009.0 |
| 20260905070328 | 64 | 339 | 0.0 | 0.0 | 0.00 | 0.00 | 0.00 | 99 | 1009.3 |
| 20260905065826 | 64 | 339 | 0.0 | 0.0 | 0.00 | 0.00 | 0.00 | 99 | 1009.0 |
| 20260905065325 | 64 | 339 | 0.0 | 0.0 | 0.00 | 0.00 | 0.00 | 99 | 1009.0 |
| 20260905064820 | 64 | 339 | 0.0 | 0.0 | 0.00 | 0.00 | 0.00 | 99 | 1009.3 |
| 20260905064316 | 64 | 339 | 0.0 | 0.0 | 0.00 | 0.00 | 0.00 | 99 | 1009.3 |
| 20260905063815 | 65 | 339 | 0.0 | 0.0 | 0.00 | 0.00 | 0.00 | 99 | 1009.6 |
| 20260905063311 | 65 | 339 | 0.0 | 0.0 | 0.00 | 0.00 | 0.00 | 99 | 1009.5 |
| 20260905062807 | 65 | 339 | 0.0 | 0.0 | 0.00 | 0.00 | 0.00 | 99 | 1009.7 |
| 20260905062307 | 65 | 339 | 0.0 | 0.0 | 0.00 | 0.00 | 0.00 | 99 | 1009.6 |
| 20260905061801 | 65 | 339 | 0.0 | 0.0 | 0.00 | 0.00 | 0.00 | 99 | 1009.6 |
| 20260905061256 | 65 | 339 | 0.0 | 0.0 | 0.00 | 0.00 | 0.00 | 99 | 1009.9 |
| 20260905060750 | 65 | 339 | 0.0 | 0.0 | 0.00 | 0.00 | 0.00 | 99 | 1009.8 |
| 20260905060247 | 66 | 339 | 0.0 | 0.0 | 0.00 | 0.00 | 0.00 | 99 | 1010.0 |
| 20260905055745 | 66 | 339 | 0.0 | 0.0 | 0.00 | 0.00 | 0.00 | 99 | 1010.0 |
| 20260905055241 | 66 | 339 | 0.0 | 0.0 | 0.00 | 0.00 | 0.00 | 99 | 1010.1 |
| 20260905054735 | 66 | 339 | 0.0 | 0.0 | 0.00 | 0.00 | 0.00 | 99 | 1010.0 |
| 20260905054232 | 66 | 339 | 0.0 | 0.0 | 0.00 | 0.00 | 0.00 | 99 | 1010.2 |
| 20260905053731 | 66 | 339 | 0.0 | 0.0 | 0.00 | 0.00 | 0.00 | 99 | 1010.4 |
| 20260905053227 | 66 | 339 | 0.0 | 0.0 | 0.00 | 0.00 | 0.00 | 99 | 1010.8 |
| 20260905052720 | 66 | 339 | 0.0 | 0.0 | 0.00 | 0.00 | 0.00 | 99 | 1010.3 |
| 20260905052215 | 66 | 339 | 0.0 | 0.0 | 0.00 | 0.00 | 0.00 | 99 | 1010.4 |
| 20260905051715 | 66 | 339 | 0.0 | 0.0 | 0.00 | 0.00 | 0.00 | 99 | 1010.3 |
| 20260905051212 | 66 | 339 | 0.0 | 0.0 | 0.00 | 0.00 | 0.00 | 99 | 1010.3 |
| 20260905050708 | 66 | 339 | 0.0 | 0.0 | 0.00 | 0.00 | 0.00 | 99 | 1010.5 |
| 20260905050204 | 66 | 339 | 0.0 | 0.0 | 0.00 | 0.00 | 0.00 | 99 | 1010.5 |
| 20260905045703 | 66 | 339 | 0.0 | 0.0 | 0.00 | 0.00 | 0.00 | 99 | 1010.9 |
| 20260905045159 | 66 | 339 | 0.0 | 0.0 | 0.00 | 0.00 | 0.00 | 99 | 1011.0 |
| 20260905044654 | 66 | 339 | 0.0 | 0.0 | 0.00 | 0.00 | 0.00 | 99 | 1010.8 |
| 20260905044149 | 66 | 339 | 0.0 | 0.0 | 0.00 | 0.00 | 0.00 | 99 | 1010.8 |
| 20260905043648 | 66 | 339 | 0.0 | 0.0 | 0.00 | 0.00 | 0.00 | 99 | 1010.8 |
| 20260905043143 | 66 | 339 | 0.0 | 0.0 | 0.00 | 0.00 | 0.00 | 99 | 1010.6 |
| 20260905042642 | 66 | 339 | 0.0 | 0.0 | 0.00 | 0.00 | 0.00 | 99 | 1010.8 |
| 20260905042137 | 66 | 339 | 0.0 | 0.0 | 0.00 | 0.00 | 0.00 | 99 | 1010.9 |
| 20260905041633 | 67 | 339 | 0.0 | 0.0 | 0.00 | 0.00 | 0.00 | 99 | 1010.9 |
| 20260905041129 | 67 | 339 | 0.0 | 0.0 | 0.00 | 0.00 | 0.00 | 99 | 1010.8 |
| 20260905040628 | 67 | 339 | 0.0 | 0.0 | 0.00 | 0.00 | 0.00 | 99 | 1011.0 |
| 20260905040121 | 67 | 339 | 0.0 | 0.0 | 0.00 | 0.00 | 0.00 | 99 | 1010.9 |
| 20260905035617 | 67 | 339 | 0.0 | 0.0 | 0.00 | 0.83 | 0.83 | 99 | 1010.9 |
| 20260905035113 | 67 | 339 | 0.0 | 0.0 | 0.00 | 0.83 | 0.83 | 99 | 1010.9 |
| 20260905034608 | 67 | 339 | 0.0 | 0.0 | 0.00 | 0.83 | 0.83 | 99 | 1010.9 |
| 20260905034102 | 67 | 339 | 0.0 | 0.0 | 0.00 | 0.83 | 0.83 | 99 | 1010.9 |
| 20260905033601 | 67 | 339 | 0.0 | 0.0 | 0.00 | 0.83 | 0.83 | 99 | 1010.9 |
| 20260905033058 | 67 | 339 | 0.0 | 0.0 | 0.00 | 0.83 | 0.83 | 99 | 1011.0 |
| 20260905032557 | 68 | 339 | 0.0 | 0.0 | 0.00 | 0.83 | 0.83 | 99 | 1011.0 |
| 20260905032052 | 68 | 339 | 0.0 | 0.0 | 0.00 | 0.83 | 0.83 | 99 | 1010.8 |
| 20260905031548 | 68 | 339 | 0.0 | 0.0 | 0.00 | 0.83 | 0.83 | 99 | 1011.1 |
| 20260905031048 | 68 | 339 | 0.0 | 0.0 | 0.00 | 0.83 | 0.83 | 99 | 1010.9 |
| 20260905030543 | 68 | 339 | 0.0 | 0.0 | 0.00 | 0.83 | 0.83 | 99 | 1010.6 |
| 20260905030043 | 68 | 339 | 0.0 | 0.0 | 0.00 | 0.83 | 0.83 | 99 | 1010.8 |
| 20260905025538 | 68 | 339 | 0.0 | 0.0 | 0.00 | 0.83 | 0.83 | 99 | 1010.9 |
| 20260905025035 | 68 | 339 | 0.0 | 0.0 | 0.00 | 0.83 | 0.83 | 99 | 1010.6 |
| 20260905024531 | 68 | 339 | 0.0 | 0.0 | 0.00 | 0.83 | 0.83 | 99 | 1010.9 |
| 20260905024026 | 68 | 339 | 0.0 | 0.0 | 0.00 | 0.83 | 0.83 | 99 | 1010.8 |
| 20260905023521 | 68 | 339 | 0.0 | 0.0 | 0.00 | 0.83 | 0.83 | 99 | 1010.9 |
| 20260905023021 | 68 | 339 | 0.0 | 0.0 | 0.00 | 0.83 | 0.83 | 99 | 1010.8 |
| 20260905022520 | 68 | 339 | 0.0 | 0.0 | 0.00 | 0.83 | 0.83 | 99 | 1010.8 |
| 20260905022016 | 69 | 339 | 0.0 | 0.0 | 0.00 | 0.83 | 0.83 | 99 | 1010.5 |
| 20260905021515 | 69 | 333 | 0.0 | 0.0 | 0.00 | 0.83 | 0.83 | 99 | 1010.4 |
| 20260905021010 | 69 | 333 | 0.0 | 0.0 | 0.00 | 0.83 | 0.83 | 99 | 1010.5 |
| 20260905020505 | 69 | 339 | 0.0 | 0.0 | 0.00 | 0.83 | 0.83 | 99 | 1010.4 |
| 20260905020005 | 69 | 339 | 0.0 | 0.0 | 0.00 | 0.83 | 0.83 | 99 | 1010.1 |
| 20260905015503 | 69 | 339 | 0.0 | 0.0 | 0.00 | 0.83 | 0.83 | 99 | 1010.0 |
| 20260905015003 | 69 | 339 | 0.0 | 0.0 | 0.00 | 0.83 | 0.83 | 99 | 1009.9 |
| 20260905014458 | 69 | 340 | 0.0 | 0.0 | 0.00 | 0.83 | 0.83 | 99 | 1010.0 |
| 20260905013953 | 69 | 340 | 0.0 | 0.0 | 0.00 | 0.83 | 0.83 | 99 | 1009.8 |
| 20260905013444 | 69 | 340 | 0.0 | 0.0 | 0.00 | 0.83 | 0.83 | 99 | 1009.7 |
| 20260905012938 | 69 | 340 | 0.0 | 0.0 | 0.00 | 0.83 | 0.83 | 99 | 1009.7 |
| 20260905012434 | 69 | 340 | 0.0 | 0.0 | 0.00 | 0.83 | 0.83 | 99 | 1009.9 |
| 20260905011930 | 69 | 340 | 0.0 | 0.0 | 0.00 | 0.83 | 0.83 | 99 | 1009.9 |
| 20260905011426 | 69 | 340 | 0.0 | 0.0 | 0.00 | 0.83 | 0.83 | 99 | 1010.0 |
| 20260905010921 | 69 | 340 | 0.0 | 0.0 | 0.00 | 0.83 | 0.83 | 99 | 1009.7 |
| 20260905010416 | 69 | 340 | 0.0 | 0.0 | 0.00 | 0.83 | 0.83 | 99 | 1009.7 |
| 20260905005912 | 69 | 340 | 0.0 | 0.0 | 0.00 | 0.83 | 0.83 | 99 | 1009.8 |
| 20260905005408 | 69 | 340 | 0.0 | 0.0 | 0.00 | 0.83 | 0.83 | 99 | 1009.9 |
| 20260905004903 | 69 | 340 | 0.0 | 0.0 | 0.00 | 0.83 | 0.83 | 99 | 1009.8 |
| 20260905004403 | 69 | 340 | 0.0 | 0.0 | 0.00 | 0.83 | 0.83 | 99 | 1009.7 |
| 20260905003858 | 69 | 340 | 0.0 | 0.0 | 0.00 | 0.83 | 0.83 | 99 | 1009.7 |
| 20260905003354 | 70 | 340 | 0.0 | 0.0 | 0.00 | 0.83 | 0.83 | 99 | 1009.8 |
| 20260905002850 | 70 | 338 | 0.0 | 0.0 | 0.00 | 0.83 | 0.83 | 99 | 1009.9 |
| 20260905002344 | 70 | 347 | 0.0 | 0.0 | 0.00 | 0.83 | 0.83 | 99 | 1009.7 |
| 20260905001838 | 70 | 354 | 0.0 | 0.0 | 0.00 | 0.83 | 0.83 | 99 | 1009.7 |
| 20260905001333 | 70 | 354 | 0.0 | 0.0 | 0.00 | 0.83 | 0.83 | 99 | 1009.7 |
| 20260905000828 | 71 | 352 | 0.0 | 0.0 | 0.00 | 0.83 | 0.83 | 99 | 1009.5 |
| 20260905000325 | 71 | 347 | 0.0 | 0.0 | 0.00 | 0.83 | 0.83 | 99 | 1009.6 |
| 20260904235819 | 71 | 5 | 0.0 | 1.0 | 0.00 | 0.83 | 0.83 | 99 | 1009.5 |
| 20260904235314 | 72 | 2 | 0.0 | 0.0 | 0.00 | 0.83 | 0.83 | 99 | 1009.7 |
| 20260904234808 | 72 | 0 | 0.0 | 0.0 | 0.00 | 0.83 | 0.83 | 99 | 1009.6 |
| 20260904234258 | 73 | 332 | 1.0 | 2.0 | 0.00 | 0.83 | 0.83 | 98 | 1009.5 |
| 20260904233753 | 73 | 335 | 1.0 | 1.0 | 0.00 | 0.83 | 0.83 | 96 | 1009.6 |
| 20260904233244 | 73 | 341 | 0.0 | 0.0 | 0.00 | 0.83 | 0.83 | 93 | 1009.7 |
| 20260904232741 | 75 | 342 | 1.0 | 1.0 | 0.00 | 0.83 | 0.83 | 90 | 1009.6 |
| 20260904232236 | 74 | 343 | 1.0 | 1.0 | 0.00 | 0.83 | 0.83 | 90 | 1009.6 |
| 20260904231731 | 74 | 342 | 0.0 | 1.0 | 0.00 | 0.83 | 0.83 | 89 | 1009.6 |
| 20260904231227 | 74 | 344 | 0.0 | 0.0 | 0.00 | 0.83 | 0.83 | 90 | 1009.7 |
| 20260904230727 | 75 | 343 | 0.0 | 0.0 | 0.00 | 0.83 | 0.83 | 89 | 1009.7 |
| 20260904230221 | 75 | 342 | 1.0 | 1.0 | 0.00 | 0.83 | 0.83 | 87 | 1009.8 |
| 20260904225720 | 75 | 344 | 0.0 | 1.0 | 0.00 | 0.83 | 0.83 | 88 | 1009.9 |
| 20260904225215 | 73 | 342 | 2.0 | 2.0 | 0.00 | 0.83 | 0.83 | 93 | 1009.8 |
| 20260904224714 | 73 | 340 | 0.0 | 1.0 | 0.00 | 0.83 | 0.83 | 95 | 1009.7 |
| 20260904224209 | 72 | 341 | 1.0 | 1.0 | 0.00 | 0.83 | 0.83 | 98 | 1009.9 |
| 20260904223708 | 72 | 342 | 0.0 | 1.0 | 0.00 | 0.83 | 0.83 | 99 | 1009.9 |
| 20260904223203 | 73 | 343 | 0.0 | 0.0 | 0.00 | 0.83 | 0.83 | 99 | 1010.1 |
| 20260904222659 | 73 | 343 | 0.0 | 0.0 | 0.00 | 0.83 | 0.83 | 99 | 1010.4 |
| 20260904222155 | 72 | 343 | 0.0 | 0.0 | 0.00 | 0.83 | 0.83 | 99 | 1010.2 |
| 20260904221654 | 72 | 344 | 0.0 | 0.0 | 0.00 | 0.83 | 0.83 | 99 | 1010.3 |
| 20260904221149 | 73 | 344 | 0.0 | 0.0 | 0.00 | 0.83 | 0.83 | 99 | 1010.2 |
| 20260904220643 | 73 | 344 | 0.0 | 0.0 | 0.00 | 0.83 | 0.83 | 99 | 1010.2 |
| 20260904220138 | 73 | 344 | 0.0 | 0.0 | 0.00 | 0.83 | 0.83 | 99 | 1010.1 |
| 20260904215633 | 73 | 343 | 0.0 | 0.0 | 0.00 | 0.83 | 0.83 | 99 | 1010.1 |
| 20260904215130 | 73 | 344 | 0.0 | 0.0 | 0.00 | 0.83 | 0.83 | 99 | 1010.0 |
| 20260904214630 | 73 | 344 | 0.0 | 0.0 | 0.00 | 0.83 | 0.83 | 99 | 1009.9 |
| 20260904214125 | 72 | 344 | 0.0 | 0.0 | 0.00 | 0.83 | 0.83 | 99 | 1010.0 |
| 20260904213623 | 72 | 344 | 0.0 | 0.0 | 0.00 | 0.83 | 0.83 | 99 | 1010.2 |
| 20260904213119 | 72 | 344 | 0.0 | 0.0 | 0.00 | 0.83 | 0.83 | 99 | 1010.2 |
| 20260904212614 | 72 | 344 | 0.0 | 0.0 | 0.00 | 0.83 | 0.83 | 99 | 1010.2 |
| 20260904212109 | 72 | 344 | 0.0 | 0.0 | 0.00 | 0.83 | 0.83 | 99 | 1010.6 |
| 20260904211608 | 72 | 344 | 0.0 | 0.0 | 0.00 | 0.83 | 0.83 | 99 | 1011.0 |
| 20260904211103 | 72 | 344 | 0.0 | 0.0 | 0.00 | 0.83 | 0.83 | 99 | 1011.0 |
| 20260904210602 | 72 | 345 | 0.0 | 0.0 | 0.00 | 0.83 | 0.83 | 99 | 1010.9 |
| 20260904210059 | 72 | 344 | 0.0 | 0.0 | 0.00 | 0.83 | 0.83 | 99 | 1010.8 |
| 20260904205554 | 72 | 343 | 1.0 | 2.0 | 0.00 | 0.83 | 0.83 | 99 | 1011.0 |
| 20260904205050 | 72 | 339 | 0.0 | 1.0 | 0.00 | 0.83 | 0.83 | 99 | 1011.0 |
| 20260904204546 | 72 | 344 | 0.0 | 0.0 | 0.00 | 0.83 | 0.83 | 99 | 1011.1 |
| 20260904204042 | 72 | 344 | 0.0 | 0.0 | 0.00 | 0.83 | 0.83 | 99 | 1011.3 |
| 20260904203538 | 72 | 340 | 1.0 | 1.0 | 0.00 | 0.83 | 0.83 | 99 | 1011.2 |
| 20260904203034 | 72 | 341 | 1.0 | 1.0 | 0.00 | 0.83 | 0.83 | 99 | 1011.2 |
| 20260904202530 | 71 | 339 | 2.0 | 2.0 | 0.00 | 0.83 | 0.83 | 99 | 1011.1 |
| 20260904202026 | 71 | 331 | 2.0 | 2.0 | 0.00 | 0.83 | 0.83 | 99 | 1011.3 |
| 20260904201521 | 71 | 330 | 0.0 | 0.0 | 0.00 | 0.83 | 0.83 | 99 | 1011.0 |
| 20260904201016 | 71 | 330 | 0.0 | 0.0 | 0.00 | 0.83 | 0.83 | 99 | 1010.6 |
| 20260904200514 | 71 | 330 | 0.0 | 0.0 | 0.00 | 0.83 | 0.83 | 99 | 1010.4 |
| 20260904200005 | 71 | 330 | 0.0 | 0.0 | 0.00 | 0.83 | 0.83 | 99 | 1010.9 |
| 20260904195503 | 71 | 329 | 1.0 | 1.0 | 0.00 | 0.83 | 0.83 | 99 | 1010.5 |
| 20260904195002 | 71 | 333 | 0.0 | 0.0 | 0.00 | 0.83 | 0.83 | 99 | 1010.5 |
| 20260904194457 | 71 | 331 | 0.0 | 0.0 | 0.00 | 0.83 | 0.83 | 99 | 1010.5 |
| 20260904193952 | 71 | 333 | 0.0 | 0.0 | 0.00 | 0.83 | 0.83 | 99 | 1010.5 |
| 20260904193447 | 70 | 333 | 0.0 | 0.0 | 0.00 | 0.83 | 0.83 | 99 | 1010.4 |
| 20260904192942 | 70 | 331 | 0.0 | 0.0 | 0.00 | 0.83 | 0.83 | 99 | 1010.5 |
| 20260904192437 | 70 | 331 | 0.0 | 0.0 | 0.00 | 0.83 | 0.83 | 99 | 1010.8 |
| 20260904191934 | 70 | 331 | 0.0 | 0.0 | 0.00 | 0.83 | 0.83 | 99 | 1010.6 |
| 20260904191430 | 70 | 331 | 0.0 | 0.0 | 0.00 | 0.83 | 0.83 | 99 | 1010.8 |
| 20260904190926 | 70 | 331 | 0.0 | 0.0 | 0.07 | 0.83 | 0.83 | 99 | 1011.1 |
| 20260904190421 | 70 | 331 | 0.0 | 0.0 | 0.50 | 0.83 | 0.83 | 99 | 1010.6 |
| 20260904185917 | 70 | 331 | 0.0 | 0.0 | 1.25 | 0.82 | 0.82 | 99 | 1010.6 |
| 20260904185413 | 70 | 188 | 2.0 | 2.0 | 2.22 | 0.76 | 0.76 | 99 | 1011.0 |
| 20260904184913 | 70 | 340 | 1.0 | 1.0 | 3.52 | 0.62 | 0.62 | 99 | 1012.2 |